User: anonymous   Login
Location: Krishnamma Banjar
(17.2175°N, 80.5166°E)
Time: 16:03:15
(UTC+00:00)
Language:

BREEZE-M TANK - Orbit

View from above orbital plane
View from above orbital plane
View from above satellite
View from above satellite

Ground track
Ground track

The orbit data is extracted from the following two-line orbital elements,

1 37750U 11035C   24276.43705357  .00000020  00000-0  95642-3 0  9998
2 37750  45.2995 318.2445 6333308  43.6716 351.8555  3.31014721159546
Epoch (UTC): 02 October 2024 10:29:21
Eccentricity: 0.6333308
inclination: 45.2995°
perigee height: 595 km
apogee height: 24685 km
right ascension of ascending node: 318.2445°
argument of perigee: 43.6716°
revolutions per day: 3.31014721
mean anomaly at epoch: 351.8555°
orbit number at epoch: 15954

The dashed part of the orbit path shows where the satellite is in the earth's shadow,  

DLR